DELTA 1 DEB, 7084

Orbit data source: Space-Track

DELTA 1 DEB, 7084 is space debris in SSO originally from a launch on Tue, 06 Nov 1973 UTC launched from the Air Force Western Test Range (AFWTR). Debris objects in space refer to the collection of defunct objects orbiting the Earth. Examples of debris include non-operational satellites, rocket bodies, and fragments generated from explosions, collisions, or faulty payload assembly.

Loading next visibility...
Identifier
7084, 1973-086CC
Orbit
SSO
Country
Flag of USUS
Related business
Manufacturer
Unknown
Mission
Spacecraft
Bus & Motor
Unknown
Mass
Unknown
Launch date (UTC)
1973-11-06 (53 years ago)
Launch vehicle
Unknown
Launch site
Air Force Western Test Range (AFWTR)
Object type
Payload
Rocket body
Debris
Shape & HBR
Unknown shape, 0.2 m
Radar Cross Section
Medium (>0.1 m² and <1 m²)

Expand to show TLE details & history
Last TLE update: 2 days ago

TLE from 2 days ago
0 DELTA 1 DEB
1  7084U 73086CC  26171.33363007 -.00000027  00000-0  12949-3 0  9993
2  7084 101.8595 115.7994 0153386 342.4737 171.6143 12.25197480352666
Epoch: 2026-06-20T08:00Z
TLE epoch observation values (Epoch: 2026-06-20T08:00:25.638Z)
Latitude
25.10209°
Longitude
-87.23841°
Altitude
1,693.358 km
Speed
6.977 km/s
True Right ascension
20h 05m 40s
True Declination
24° 59' 08"
Sunlit
Object was in daylight at epoch
Visualization orbit readout
Latitude
Unknown
Longitude
Unknown
Altitude
Unknown
Speed
Unknown
Apparent Right ascension
Unknown
Apparent Declination
Unknown
Sunlit
N/A
Visualization observer readout
Local Sidereal Time
02:17:15
Azimuth
Unknown
Elevation
Unknown
Doppler factor
Unknown
Orbital elements
Apogee altitude
1,689.445 km
Perigee altitude
1,445.693 km
Semi-major axis
7,945.706 km
Eccentricity
0.01534
Inclination
101.8595°
RAAN
115.7994°
Arg. of periapsis
342.4737°
True anomaly
171.86586°
Mean anomaly
171.6143°
Eccentric anomaly
171.74055°
Mean motion
3.06439 °/min
Orbital period
117.48 mins
BSTAR
0.00012949
Loading maneuver chart data...
Computing Atmospheric mass density...
Loading historical data...
Loading historical data...
Loading historical data...
Loading historical data...
Loading historical data...
Loading historical data...
Loading historical data...

Documentation

Showing up to 5 results
|